Location: Potomac
(46.8816°N, 113.5795°W)
Time: 13:22:45
(UTC+00:00)

JY1SAT - Pass Details

Date: 01 July 2022
Orbit: 564 x 586 km, 97.6° (Epoch: 19 August)

Event Time Altitude Azimuth Distance (km) Brightness Sun altitude
Exits shadow 04:13:02 - 134° (SE) 2,101 ? -6.1°
Reaches altitude 10° 04:13:33 10° 131° (SE) 1,910 ? -6.2°
Maximum altitude 04:17:14 32° 68° (ENE) 1,020 ? -6.6°
Drops below altitude 10° 04:20:58 10° 5° (N) 1,923 ? -7.1°
Sets 04:23:17 0° 356° (N) 2,827 ? -7.4°
